Notices

What's New in latest Release from April 7th, 2021:

- Updated Glossary, including Speed of Maximum Gust, and Total Hourly Precipitation

- Updated national and regional climate services offices contacts and prices information

- Addition of station inventory lists for 1981-2010, 1971-2000, and 1961-1990 Normals.

If you haven't already, please take our survey and provide feedback about our website: https://eccc.sondage-survey.ca/f/LanguageSelection.aspx?s=442ca660-fcf1-47c0-95a9-59707d6fd709

Hourly Data Report for March 14, 2003

TORONTO CITY
ONTARIO

43°40'00.000" N
79°24'00.000" W
112.50 m
6158355
71508
XTO

Download Data

Hourly Data (March 2003)
Hourly Data Report for March 14, 2003
TIME
LST
Temp Definition
°C
Dew Point Definition
°C
Rel Hum Definition
%
Precip. Amount Definition
mm

Wind Dir Definition
10's deg

Wind Spd Definition
km/h
Visibility Definition
km
Stn Press Definition
kPa
Hmdx Definition


Wind Chill Definition


Weather Definition


00:00 -6.2 -14.5 52   LegendMM LegendMM LegendMM 101.30     LegendNANA
01:00 -6.8 -14.6 54   LegendMM LegendMM LegendMM 101.33     LegendNANA
02:00 -6.4 -14.5 53   LegendMM LegendMM LegendMM 101.36     LegendNANA
03:00 -6.8 -14.6 54   LegendMM LegendMM LegendMM 101.37     LegendNANA
04:00 -6.7 -13.9 57   LegendMM LegendMM LegendMM 101.42     LegendNANA
05:00 -6.4 -14.5 53   LegendMM LegendMM LegendMM 101.45     LegendNANA
06:00 -6.2 -14.5 52   LegendMM LegendMM LegendMM 101.48     LegendNANA
07:00 -5.9 -14.3 51   LegendMM LegendMM LegendMM 101.47     LegendNANA
08:00 -4.9 -12.6 55   LegendMM LegendMM LegendMM 101.57     LegendNANA
09:00 -3.0 -11.1 54   LegendMM LegendMM LegendMM 101.55     LegendNANA
10:00 -2.2 -11.8 48   LegendMM LegendMM LegendMM 101.47     LegendNANA
11:00 -1.7 -9.6 55   LegendMM LegendMM LegendMM 101.43     LegendNANA
12:00 -1.1 -10.0 51   LegendMM LegendMM LegendMM 101.36     LegendNANA
13:00 -1.4 -8.2 60   LegendMM LegendMM LegendMM 101.28     LegendNANA
14:00 0.3 -9.5 48   LegendMM LegendMM LegendMM 101.16     LegendNANA
15:00 -0.8 -10.0 50   LegendMM LegendMM LegendMM 101.06     LegendNANA
16:00 -0.8 -9.5 52   LegendMM LegendMM LegendMM 100.99     LegendNANA
17:00 -1.1 -8.8 56   LegendMM LegendMM LegendMM 100.94     LegendNANA
18:00 -1.2 -8.3 58   LegendMM LegendMM LegendMM 100.92     LegendNANA
19:00 -1.4 -7.6 63   LegendMM LegendMM LegendMM 100.90     LegendNANA
20:00 -1.3 -6.7 67   LegendMM LegendMM LegendMM 100.85     LegendNANA
21:00 -0.9 -6.1 68   LegendMM LegendMM LegendMM 100.74     LegendNANA
22:00 -0.6 -5.5 69   LegendMM LegendMM LegendMM 100.69     LegendNANA
23:00 -0.1 -4.4 73   LegendMM LegendMM LegendMM 100.59     LegendNANA

Notes on Data Quality.

Legend

  • E = Estimated
  • M = Missing
  • NA = Not Available*
  • [empty] = Indicates an unobserved value
Date modified: